Location: Hradec Kralove
(50.2170°N, 15.8330°E)
Time: 17:33:14
(UTC+01:00)

Transit 2A - All Passes

Search period start: 29 January 2023 00:00
Search period end: 08 February 2023 00:00
Orbit: 594 x 962 km, 66.7° (Epoch: 29 January)

Date Brightness Start Highest point End Pass type
(mag) Time Alt. Az. Time Alt. Az. Time Alt. Az.
29 Jan - 00:24:02 10° NNW 00:28:26 22° NNE 00:33:05 10° ENE night (unlit)
29 Jan - 02:06:59 10° NNW 02:12:50 58° NE 02:19:02 10° SE night (unlit)
29 Jan - 03:50:27 10° NW 03:55:56 36° WSW 04:01:36 10° S night (unlit)
29 Jan - 16:54:42 10° SE 16:56:58 13° ESE 16:59:19 10° ENE daylight
29 Jan - 18:34:15 10° SSW 18:39:05 80° ESE 18:44:31 10° NE visible
29 Jan - 20:18:35 10° W 20:22:55 27° NNW 20:27:41 10° NNE visible
29 Jan - 22:04:55 10° NW 22:08:05 15° N 22:11:25 10° NNE visible
29 Jan - 23:49:31 10° NNW 23:53:33 19° NNE 23:57:49 10° ENE night (unlit)
30 Jan - 01:32:30 10° NNW 01:38:12 46° NE 01:44:13 10° ESE night (unlit)
30 Jan - 03:15:46 10° NW 03:21:32 48° WSW 03:27:35 10° S night (unlit)
30 Jan - 17:59:55 10° SSW 18:04:38 57° ESE 18:09:55 10° NE visible
30 Jan - 19:43:35 10° WSW 19:48:10 33° NW 19:53:13 10° NNE visible
30 Jan - 21:29:48 10° NW 21:33:07 16° N 21:36:39 10° NNE visible
30 Jan - 23:14:55 10° NNW 23:18:38 17° NNE 23:22:33 10° NE night (unlit)
31 Jan - 00:58:03 10° NNW 01:03:30 37° NE 01:09:17 10° ESE night (unlit)
31 Jan - 02:41:08 10° NW 02:47:06 64° WSW 02:53:22 10° SSE night (unlit)
31 Jan - 04:26:28 10° WNW 04:29:21 14° WSW 04:32:18 10° SW night (unlit)
31 Jan - 17:25:46 10° S 17:30:16 40° ESE 17:35:15 10° NE visible
31 Jan - 19:08:42 10° WSW 19:13:27 42° NW 19:18:44 10° NNE visible
31 Jan - 20:54:36 10° WNW 20:58:11 18° NNW 21:02:00 10° NNE visible
31 Jan - 22:40:14 10° NNW 22:43:41 16° N 22:47:18 10° NE visible
01 Feb - 00:23:35 10° NNW 00:28:45 31° NE 00:34:13 10° E night (unlit)
01 Feb - 02:06:35 10° NW 02:12:37 84° SW 02:18:58 10° SSE night (unlit)
01 Feb - 03:50:59 10° WNW 03:55:09 19° WSW 03:59:25 10° SSW night (unlit)
01 Feb - 16:51:50 10° S 16:55:57 29° ESE 17:00:28 10° NE daylight
01 Feb - 18:33:56 10° SW 18:38:47 55° NW 18:44:14 10° NNE visible
01 Feb - 20:19:25 10° WNW 20:23:16 20° NNW 20:27:24 10° NNE visible
01 Feb - 22:05:27 10° NNW 22:08:43 15° N 22:12:08 10° NE visible
01 Feb - 23:49:06 10° NNW 23:53:58 26° NNE 23:59:05 10° E night (unlit)
02 Feb - 01:32:04 10° NW 01:38:05 77° NE 01:44:26 10° SE night (unlit)
02 Feb - 03:15:56 10° NW 03:20:53 26° WSW 03:25:58 10° SSW night (unlit)
02 Feb - 16:18:10 10° SSE 16:21:42 20° ESE 16:25:30 10° ENE daylight
02 Feb - 17:59:17 10° SW 18:04:12 74° NW 18:09:44 10° NE visible
02 Feb - 19:44:16 10° WNW 19:48:24 23° NNW 19:52:52 10° NNE visible
02 Feb - 21:30:32 10° NW 21:33:44 15° N 21:37:05 10° NE visible
02 Feb - 23:14:36 10° NNW 23:19:07 22° NNE 23:23:51 10° ENE visible
03 Feb - 00:57:34 10° NNW 01:03:30 60° NE 01:09:45 10° SE night (unlit)
03 Feb - 02:41:06 10° NW 02:46:33 35° WSW 02:52:12 10° S night (unlit)
03 Feb - 15:45:00 10° SE 15:47:31 14° ESE 15:50:10 10° ENE daylight
03 Feb - 17:24:46 10° SSW 17:29:40 83° SE 17:35:11 10° NE visible
03 Feb - 19:09:10 10° W 19:13:34 27° NNW 19:18:21 10° NNE visible
03 Feb - 20:55:30 10° NW 20:58:45 15° N 21:02:10 10° NNE visible
03 Feb - 22:40:04 10° NNW 22:44:13 20° NNE 22:48:36 10° ENE visible
04 Feb - 00:23:06 10° NNW 00:28:51 47° NE 00:34:56 10° ESE night (unlit)
04 Feb - 02:06:22 10° NW 02:12:10 47° WSW 02:18:11 10° S night (unlit)
04 Feb - 16:50:24 10° SSW 16:55:12 60° ESE 17:00:35 10° NE daylight
04 Feb - 18:34:09 10° W 18:38:47 33° NW 18:43:52 10° NNE visible
04 Feb - 20:20:22 10° NW 20:23:46 16° N 20:27:22 10° NNE visible
04 Feb - 22:05:28 10° NNW 22:09:17 18° NNE 22:13:18 10° ENE visible
04 Feb - 23:48:37 10° NNW 23:54:09 38° NE 00:00:00 10° ESE night (unlit)
05 Feb - 01:31:45 10° NW 01:37:44 62° WSW 01:43:59 10° SSE night (unlit)
05 Feb - 03:17:13 10° WNW 03:19:57 13° WSW 03:22:42 10° SW night (unlit)
05 Feb - 16:16:13 10° S 16:20:49 42° ESE 16:25:55 10° NE daylight
05 Feb - 17:59:15 10° WSW 18:04:03 41° NW 18:09:23 10° NNE visible
05 Feb - 19:45:11 10° WNW 19:48:49 18° NNW 19:52:41 10° NNE visible
05 Feb - 21:30:47 10° NNW 21:34:20 16° N 21:38:03 10° NE visible
05 Feb - 23:14:08 10° NNW 23:19:24 32° NE 23:24:57 10° E visible
06 Feb - 00:57:10 10° NW 01:03:15 81° SW 01:09:37 10° SSE night (unlit)
06 Feb - 02:41:39 10° WNW 02:45:44 19° WSW 02:49:54 10° SSW night (unlit)
06 Feb - 15:42:14 10° S 15:46:29 30° ESE 15:51:08 10° NE daylight
06 Feb - 17:24:27 10° WSW 17:29:22 54° NW 17:34:53 10° NNE visible
06 Feb - 19:10:00 10° WNW 19:13:53 20° NNW 19:18:04 10° NNE visible
06 Feb - 20:55:59 10° NNW 20:59:21 16° N 21:02:52 10° NE visible
06 Feb - 22:39:39 10° NNW 22:44:36 27° NNE 22:49:48 10° E visible
07 Feb - 00:22:37 10° NW 00:28:42 79° NE 00:35:04 10° SE night (unlit)
07 Feb - 02:06:33 10° WNW 02:11:28 25° WSW 02:16:30 10° SSW night (unlit)
07 Feb - 15:08:32 10° SSE 15:12:13 21° ESE 15:16:12 10° ENE daylight
07 Feb - 16:49:47 10° SW 16:54:45 72° NW 17:00:21 10° NE daylight
07 Feb - 18:34:49 10° WNW 18:39:00 23° NNW 18:43:31 10° NNE visible
07 Feb - 20:21:04 10° NW 20:24:21 15° N 20:27:48 10° NE visible
07 Feb - 22:05:07 10° NNW 22:09:44 23° NNE 22:14:35 10° ENE visible
